TIME,DELAY(SENSOR),PRES,OXYGEN,RAWTEMP,T(OPTODE),TCPHASE,FLUOR,BETA(BETA700),BETA(BETA412),BETA(BETA440),CDOM,C(CSC),ED(ED412.20),ED(ED444.00),ED(ED489.60),ED(ED554.30),LU(LU412.10),LU(LU443.90),LU(LU489.70),LU(LU554.70),COMP,TILTX,TILTY,CHECK
1360119419,5807,875.1099853515625000,35.4612007141113300,560.4948730468750000,4.4705557823181150,56.2177085876464840,55,101,99,80,82,15530,0,0,0,0,2147123355,2147770349,2147574418,2147567963,1247,2,13,1650
1360123015,5808,937.4500122070312000,39.6579093933105500,566.9367065429688000,4.2707161903381350,55.6324386596679700,54,98,100,77,82,15526,0,0,0,0,2147122953,2147773604,2147571026,2147569901,332,2,13,1209
1360126615,5810,949.1799926757812000,41.3716316223144500,567.5609741210938000,4.2513279914855960,55.3863182067871100,55,98,99,77,82,15526,0,0,0,0,2147122843,2147774692,2147573878,2147568411,118,2,13,25312
1360130215,5808,979.2000122070312000,41.9009017944335940,570.2454833984375000,4.1679329872131350,55.3368606567382800,55,99,100,80,82,15524,0,0,0,0,2147124571,2147776484,2147575360,2147571474,146,2,13,27758
1360133815,5808,984.0200195312500000,41.6949806213378900,570.2246704101562000,4.1685791015625000,55.3658599853515600,54,98,100,78,81,15522,0,0,0,0,2147124662,2147771766,2147576018,2147569170,387,2,13,55435
1360137415,5811,980.5599975585938000,41.9268188476562500,570.9025878906250000,4.1475071907043460,55.3373908996582000,55,99,102,78,81,15519,0,0,0,0,2147124160,2147775936,2147573705,2147567625,3450,2,13,64324
1360141015,5810,987.2500000000000000,42.0362205505371100,571.3115844726562000,4.1347961425781250,55.3271217346191400,56,98,101,78,83,15519,0,0,0,0,2147126729,2147769837,2147576137,2147571090,354,2,13,51615
1360144615,5807,981.1799926757812000,42.0477790832519500,571.3082885742188000,4.1348948478698730,55.3269996643066400,55,99,100,79,81,15520,0,0,0,0,2147122633,2147773613,2147574820,2147567734,389,2,13,14691
1360148215,5810,992.7500000000000000,41.4366188049316400,570.9232788085938000,4.1468639373779300,55.4092903137207000,55,97,101,78,81,15521,0,0,0,0,2147125787,2147772178,2147568512,2147569014,63,2,13,44215
1360151815,5810,997.2500000000000000,41.2727012634277340,570.3370971679688000,4.1650848388671875,55.4273681640625000,55,98,100,78,82,15520,0,0,0,0,2147128054,2147774994,2147577060,2147568484,3007,2,13,6574
1360155415,5811,994.6699829101562000,41.2527694702148440,570.2360229492188000,4.1682281494140625,55.4300804138183600,55,98,98,78,82,15521,0,0,0,0,2147123821,2147771529,2147573924,2147568786,347,2,13,61704
1360159015,5813,986.9500122070312000,41.2518081665039060,570.9481201171875000,4.1460928916931150,55.4424095153808600,55,98,100,78,81,15518,0,0,0,0,2147123830,2147772068,2147579209,2147571721,6,2,13,4017
1360162615,5812,989.7399902343750000,41.2852516174316400,571.3179931640625000,4.1345958709716800,55.4368705749511700,54,97,100,77,82,15519,0,0,0,0,2147122194,2147772818,2147571785,2147567835,28,3,13,65215
1360166215,5808,991.6900024414062000,41.2627410888671900,571.4194946289062000,4.1314411163330080,55.4457588195800800,54,97,101,78,81,15517,0,0,0,0,2147123456,2147776896,2147578788,2147574299,497,3,13,32830
1360169815,5809,989.4699707031250000,41.0859603881835940,571.3034057617188000,4.1350498199462890,55.4664497375488300,54,99,100,78,81,15518,0,0,0,0,2147121874,2147770770,2147575515,2147568393,142,3,13,56372
1360173415,5809,987.9500122070312000,42.2607994079589840,572.0598144531250000,4.1115341186523440,55.3069915771484400,53,100,100,78,81,15518,0,0,0,0,2147122569,2147772022,2147573650,2147562166,226,2,13,20435
1360177015,5809,988.5700073242188000,41.9911384582519500,571.5557250976562000,4.1272048950195310,55.3395309448242200,55,100,101,79,82,15518,0,0,0,0,2147124726,2147774464,2147572397,2147566299,290,2,13,5227
1360180615,5808,995.3099975585938000,42.2158203125000000,571.8734130859375000,4.1173310279846190,55.3081512451171900,55,99,101,77,82,15518,0,0,0,0,2147123840,2147775478,2147574729,2147568777,349,2,13,17303
1360184215,5812,997.2800292968750000,41.7393493652343750,571.2860717773438000,4.1355857849121090,55.3741798400878900,55,98,99,79,83,15518,0,0,0,0,2147126034,2147768411,2147571977,2147572059,3374,2,13,22418
1360187815,5809,989.7899780273438000,41.7510604858398440,571.9555053710938000,4.1147770881652830,55.3770217895507800,55,99,100,77,82,15512,0,0,0,0,2147122880,2147771867,2147573504,2147568402,3476,2,13,32961
1360191415,5812,994.3400268554688000,41.7796707153320300,571.6245117187500000,4.1250672340393070,55.3677787780761700,56,101,100,78,80,15518,0,0,0,0,2147127588,2147776850,2147573184,2147568694,232,2,13,15476
1360195015,5810,998.8699951171875000,42.0103797912597660,571.5415039062500000,4.1276469230651855,55.3375091552734400,55,99,101,78,82,15511,0,0,0,0,2147121792,2147772150,2147572699,2147570166,3232,2,13,54737
1360198615,5808,1000.2999877929688000,41.4728698730468750,571.1328125000000000,4.1403517723083500,55.4115180969238300,56,98,100,78,81,15513,0,0,0,0,2147122011,2147768941,2147573138,2147567661,3011,2,13,53156
1360202215,5813,1004.1099853515625000,41.2470397949218750,570.7459106445312000,4.1523780822753910,55.4390296936035160,54,100,100,78,82,15517,0,0,0,0,2147119716,2147771474,2147572379,2147570925,3406,2,13,62299
1360205815,5810,1003.1699829101562000,41.0006713867187500,570.3095703125000000,4.1659369468688965,55.4697189331054700,54,98,101,78,82,15511,0,0,0,0,2147124324,2147770486,2147576594,2147568649,49,2,13,50304
1360209415,5811,1004.2399902343750000,41.0359306335449200,570.7590942382812000,4.1519699096679690,55.4694213867187500,54,100,100,78,82,15511,0,0,0,0,2147123474,2147767277,2147575808,2147568768,76,2,13,50305
1360213015,5807,1002.8699951171875000,40.8072090148925800,570.3505249023438000,4.1646671295166020,55.4999198913574200,55,96,100,78,82,15513,0,0,0,0,2147123593,2147767524,2147577417,2147567680,3304,2,13,33032
1360216615,5810,993.1199951171875000,41.0634307861328100,570.7069702148438000,4.1535868644714355,55.4679603576660160,55,97,100,77,81,15513,0,0,0,0,2147122496,2147772050,2147573376,2147568265,3428,2,13,27656
1360220215,5809,1000.2500000000000000,41.3327484130859400,571.1331787109375000,4.1403408050537110,55.4264297485351560,55,97,101,77,82,15514,0,0,0,0,2147125705,2147774674,2147570358,2147566464,2716,2,13,36894
1360223815,5809,988.6099853515625000,41.2299385070800800,572.2453002929688000,4.1057658195495605,55.4584884643554700,55,98,100,77,81,15513,0,0,0,0,2147124260,2147771739,2147573558,2147565997,191,2,13,39752
1360227415,5811,993.3900146484375000,41.8372116088867200,572.5471191406250000,4.0963802337646480,55.3699302673339840,55,97,100,78,83,15510,0,0,0,0,2147125074,2147774198,2147575378,2147569974,3456,2,13,4703
1360231015,5811,995.5700073242188000,42.1332817077636700,572.5712280273438000,4.0956311225891110,55.3317489624023440,55,97,101,79,82,15512,0,0,0,0,2147121216,2147771236,2147573440,2147569417,354,3,13,23660
1360234615,5810,994.4400024414062000,42.1058807373046900,572.6934814453125000,4.0918288230896000,55.3354682922363300,55,98,100,79,81,15515,0,0,0,0,2147127277,2147770432,2147572105,2147566336,33,2,13,18320
1360238215,5810,993.9500122070312000,42.3587913513183600,572.7454833984375000,4.0902118682861330,55.3004188537597660,55,98,101,78,82,15513,0,0,0,0,2147123584,2147772571,2147575177,2147570934,3500,2,13,32895
1360241815,5810,996.9899902343750000,42.3222389221191400,573.0692749023438000,4.0801410675048830,55.3067588806152340,55,98,100,78,82,15513,0,0,0,0,2147122560,2147775332,2147577097,2147569526,518,2,13,12284
1360245415,5811,994.0300292968750000,41.8047294616699200,572.8018188476562000,4.0884609222412110,55.3766288757324200,54,98,100,78,82,15512,0,0,0,0,2147120850,2147774372,2147572681,2147570057,3434,2,13,22771
1360249015,5811,1004.6400146484375000,41.8953704833984400,571.6699829101562000,4.1236529350280760,55.3528518676757800,55,98,100,79,81,15507,0,0,0,0,2147123675,2147769362,2147576603,2147571090,43,2,13,45428
1360252615,5808,995.8699951171875000,41.3318786621093750,572.3032836914062000,4.1039619445800780,55.4460601806640600,54,98,101,78,82,15510,0,0,0,0,2147123483,2147774692,2147577856,2147569179,145,2,13,61039
1360256215,5809,997.9099731445312000,41.6697998046875000,572.4486083984375000,4.0994429588317870,55.3958396911621100,54,98,99,78,82,15510,0,0,0,0,2147122340,2147769801,2147567606,2147567488,276,2,13,6469
1360259815,5809,999.8800048828125000,41.9898986816406250,571.9234008789062000,4.1157741546630860,55.3449096679687500,55,97,100,78,82,15511,0,0,0,0,2147125421,2147772032,2147576438,2147566646,200,2,13,4695
1360263415,5809,996.2700195312500000,41.8635406494140600,572.8925170898438000,4.0856380462646480,55.3704490661621100,55,97,100,79,82,15510,0,0,0,0,2147127707,2147772150,2147573339,2147569600,136,2,13,3807
1360264556,5811,1003.9099731445312000,42.2769508361816400,572.2808227539062000,4.1046619415283200,55.3020401000976560,54,98,100,77,82,15511,0,0,0,0,2147124690,2147770496,2147576923,2147568950,3272,2,13,60172
